Regional Weather Roundup
Issued by NWS Newport/Morehead, NC

Current Version | Previous Version | Graphics & Text | Print | Product List | Glossary Off
Versions: 1 2 3 4 5 6 7 8 9 10 11 12 13 14 15 16 17 18 19 20 21 22 23 24 25 26 27 28 29 30 31 32 33 34 35 36 37 38 39 40 41 42 43 44 45 46 47 48 49 50

000
ASUS42 KMHX 010125
RWRMHX
WEATHER ROUNDUP FOR EASTERN NORTH CAROLINA
NATIONAL WEATHER SERVICE NEWPORT/MOREHEAD CITY NC
900 PM EDT FRI SEP 30 2016

NOTE: "FAIR" INDICATES FEW OR NO CLOUDS BELOW 12,000 FEET
WITH NO SIGNIFICANT WEATHER AND/OR OBSTRUCTIONS TO VISIBILITY

NCZ015>017-031-032-045>047-102-103-010200-
NORTH COAST

CITY           SKY/WX    TMP DP  RH WIND       PRES   REMARKS
EDENTON        CLOUDY    75  75 100 SE3       30.05R
ELIZABETH CITY CLOUDY    75  74  96 CALM      30.05R
KITTY HAWK     MOCLDY    75  75  99 SE3       30.04S
MANTEO         CLOUDY    74  73  95 SE3       30.06R

$$

NCZ045>047-081-094-103-104-010200-
CENTRAL COAST

CITY           SKY/WX    TMP DP  RH WIND       PRES   REMARKS
FRISCO         CLOUDY    77  74  90 S15G22    30.06R

$$

NCZ095-097-098-100-101-010200-
SOUTHERN COAST

CITY           SKY/WX    TMP DP  RH WIND       PRES   REMARKS
BEAUFORT       PTCLDY    78  74  87 SE9       30.03R
CEDAR ISLAND   NOT AVBL
JACKSONVILLE   CLEAR     75  72  90 SE3       30.01R
PINEY ISLAND   MOCLDY   N/A N/A N/A SE8       30.03R
WILMINGTON     PTCLDY    75  73  93 S5        30.00R


$$

NCZ011>013-027>030-043-044-078>080-089-090>093-098-010200-
COASTAL PLAIN

CITY           SKY/WX    TMP DP  RH WIND       PRES   REMARKS
AHOSKIE        CLOUDY    72  71  97 CALM      30.04R
CLINTON        MOCLDY    71  71 100 CALM      30.01R
ELIZABETHTOWN  PTCLDY    72  72 100 CALM      30.00R
GOLDSBORO      PTCLDY    73  73 100 SE5       29.99R
GREENVILLE     CLOUDY    72  72 100 SE3       30.04R
HAVELOCK       MOCLDY    74  72  93 SE7       30.04R
KENANSVILLE    PTCLDY    70  70 100 CALM      30.01R
KINSTON        CLEAR     73  72  94 SE3       30.03R
NEW BERN       PTCLDY    74  71  91 SE5       30.04R
RICHLANDS      CLEAR     74  73  97 E3        30.02R
ROCKY MOUNT    PTCLDY    73  72  96 CALM      30.01S
WASHINGTON     CLOUDY    72  70  93 SE6       30.03R
WHITEVILLE     NOT AVBL

$$

AMZ130-135-150-152-154-156-158-170-250-252-270-ANZ085-086-088-633-658-670-010200-
MARINE OBSERVATIONS

STATION/POSITION TIME  TEMP    WIND        PRES    WAVE   SWELL
                       AIR SEA DIR/SP/G            HT/PER HT/PER
                 (UTC) (F)     (DEG/KT/KT) (MB)    (FT/S) (FT/S)
CHESAPEAKE LIGHT NOT AVBL
64 E VA BEACH    0050   76 75   90/  8/ 10 1017.6    7/10   7/10
DUCK             0100   77 77  140/  9/ 10 1016.9
2 E DUCK         0041      76                N/A     5/10   2/11
OREGON INLET     0100   76 78  150/  7/ 10 1017.6
13E OREGON INLT  0100      76                N/A     6/11   5/11
HATTERAS CG      0100   78 79  140/ 13/ 18 1017.0
DIAMOND BUOY     0050   78 76  170/ 16/ 19 1017.5    4/11   3/11
CAPE LOOKOUT     0100   78     130/ 13/ 14 1016.8
BEAUFORT LAB     0100   78 77  140/ 10/ 14 1016.4
30 SE NEW RVR IN 0108   81 82  190/ 10/ 16 1016.7
30 SE NEW RVR IN 0055      82                N/A     5/12   2/12
27 SE WRIGHTSVLE 0108   81 81  190/ 10/ 14 1016.6
5 SE WRIGHTSVLE  NOT AVBL
225 S CAPE HAT   0050   82 83  150/ 12/ 14 1018.5    5/ 9   3/ 9
41 SE CHARLESTON 0050   81 82  210/ 10/ 12 1015.2    2/ 6   2/ 6

$$




USA.gov is the U.S. government's official web portal to all federal, state and local government web resources and services.